Location: Babice
(50.3480°N, 22.9363°E)
Time: 12:33:48
(UTC+00:00)

Cosmos 1743 - Pass Details

Date: 14 July 2020
Orbit: 511 x 526 km, 82.6° (Epoch: 07 August)

Event Time Altitude Azimuth Distance (km) Brightness Sun altitude
Exits shadow 01:27:33 - 183° (S) 2,074 5.3 -8.5°
Reaches altitude 10° 01:28:22 10° 182° (S) 1,736 4.9 -8.4°
Maximum altitude 01:32:09 73° 98° (E) 545 2.9 -8.0°
Drops below altitude 10° 01:36:00 10° 14° (NNE) 1,759 6.5 -7.6°
Sets 01:38:09 0° 12° (NNE) 2,655 7.5 -7.4°
